Location: Pradons
(44.4746°N, 4.3578°E)
Time: 20:24:14
(UTC+00:00)

Cosmos 1703 - Pass Details

Date: 08 August 2020
Orbit: 523 x 541 km, 82.5° (Epoch: 01 October)

Event Time Altitude Azimuth Distance (km) Brightness Sun altitude
Rises 02:20:14 0° 7° (N) 2,711 7.8 -20.3°
Reaches altitude 10° 02:23:02 10° 28° (NNE) 1,812 7.1 -20.0°
Maximum altitude 02:25:42 17° 70° (ENE) 1,407 6.1 -19.7°
Drops below altitude 10° 02:28:21 10° 112° (ESE) 1,799 6.2 -19.4°
Sets 02:31:07 0° 133° (SE) 2,682 6.8 -19.0°
